Location: Bruntinge
(52.8162°N, 6.5837°E)
Time: 15:07:19
(UTC+00:00)

Daily predictions for brighter satellites

Satellite Brightness Start Highest point End
(mag) Time Altitude Azimuth Time Altitude Azimuth Time Altitude Azimuth
Okean 1 Rocket 3.2 19:50:14 10° S 19:54:30 54° E 19:58:50 10° NNE
Meteor 2-3 Rocket 3.8 19:50:22 10° NNW 19:56:01 89° WSW 20:01:40 10° S
Cosmos 2084 3.4 19:54:00 10° SW 19:58:09 90° SW 20:02:19 10° NE
SPOT 3 Rocket 4.2 19:54:37 10° SE 19:59:24 40° ENE 20:04:11 10° N
CZ-4 R/B 2.8 19:57:08 10° SSW 20:00:27 33° W 20:03:48 10° NNW
Cosmos 1850 Rocket 4.0 19:55:19 10° NNW 20:00:31 79° ENE 20:05:41 10° SSE
CZ-4B R/B 3.7 19:58:49 10° SE 20:01:42 27° ENE 20:04:39 10° N
Cosmos 1782 3.9 19:59:39 10° SE 20:02:26 22° E 20:05:14 10° NE
ASTEX 1 4.3 20:02:02 10° SSW 20:06:52 53° W 20:11:44 10° NNW
Cosmos 2084 Rocket 4.0 20:06:06 10° NW 20:10:10 49° NNE 20:14:17 10° ESE
CZ-4B R/B 3.7 20:04:48 10° S 20:10:25 64° WSW 20:16:02 10° NNW
Cosmos 2056 Rocket 3.9 20:05:05 10° SSW 20:10:28 72° WNW 20:15:52 10° NNE
Cosmos 1833 Rocket 2.7 20:05:51 10° SSW 20:11:28 88° ESE 20:17:08 10° NNE
Cosmos 1110 Rocket 4.1 20:06:42 10° S 20:11:53 58° ESE 20:17:06 10° NNE
Cosmos 1802 Rocket 4.1 20:06:15 10° S 20:12:19 58° E 20:18:20 10° NNE
Cosmos 1624 Rocket 4.4 20:08:15 10° SW 20:13:25 70° WNW 20:18:36 10° NNE
Terra 2.6 20:10:04 10° S 20:14:38 51° W 20:19:14 10° NNW
Gbstr 26 Del rocket 3.5 20:09:41 10° W 20:14:50 55° SSW 20:18:53 11° SE
Cosmos 2360 Rocket 4.0 20:11:38 10° NNW 20:16:02 22° NNE 20:20:24 10° E
Sich 1 Rocket 3.5 20:12:59 10° S 20:17:19 78° E 20:21:43 10° NNE
SJ 16-02 4.2 20:17:38 10° WNW 20:19:08 12° W 20:20:40 10° WSW
YAOGAN 11 4.2 20:16:09 10° NNE 20:20:29 56° E 20:24:51 10° S
CZ-2C R/B 3.4 20:23:39 13° ESE 20:25:30 24° ENE 20:27:51 10° N
Cosmos 1743 2.0 20:22:45 10° N 20:25:47 81° ENE 20:28:34 12° SSE
Meteor 1-27 4.3 20:26:15 10° S 20:31:48 62° E 20:37:21 10° NNE
Cosmos 44 Rocket 3.6 20:27:12 10° SSW 20:32:04 48° ESE 20:37:02 10° NE
ISS -2.4 20:30:24 10° SSW 20:32:50 19° SE 20:35:05 11° E
Cosmos 1459 Rocket 4.1 20:27:05 10° SSW 20:33:21 82° WNW 20:39:33 10° N
Cosmos 2219 Rocket 4.2 20:29:20 10° NNW 20:33:31 21° NNE 20:37:42 10° ENE
Meteor 2-12 Rocket 4.5 20:28:48 10° N 20:34:54 76° ENE 20:40:49 11° SSE
Ariane Rocket 3.2 20:32:21 13° SSE 20:36:48 61° ENE 20:41:48 10° N
Cosmos 2100 Rocket 4.3 20:30:44 10° SSW 20:36:56 73° WNW 20:43:16 10° N
ATLAS 2AS CENTAUR R/B 3.1 20:33:54 10° WSW 20:40:49 68° NW 20:47:38 10° NE
Cosmos 2369 3.8 20:35:54 10° NNW 20:41:38 76° NE 20:46:24 15° SE
SL-4 R/B 3.9 20:39:56 10° WSW 20:42:20 16° SW 20:44:43 10° S
BREEZE-M DEB (TANK) 4.5 20:39:39 10° WSW 20:42:32 28° SSW 20:47:10 14° SE
Spot 2 Rocket 4.1 20:37:58 10° S 20:42:52 54° W 20:47:49 10° NNW
Cosmos 2322 Rocket 3.6 20:38:58 10° NNW 20:43:55 30° NE 20:48:51 10° E
Cosmos 2082 Rocket 2.6 20:42:17 10° S 20:47:37 42° ESE 20:52:58 10° NE
Okean 2 Rocket 4.2 20:43:24 10° SSW 20:47:43 46° WNW 20:52:04 10° N
USA 305 2.5 20:44:28 10° WNW 20:48:33 72° SSW 20:51:08 19° ESE
Cosmos 1437 Rocket 4.2 20:47:59 16° ESE 20:49:05 18° E 20:51:33 10° NE
Cosmos 2151 3.7 20:46:25 10° N 20:50:18 38° ENE 20:52:53 18° SE
Cosmos 1626 Rocket 3.7 20:52:47 10° N 20:57:06 60° ENE 21:00:04 19° SSE
Cosmos 2233 Rocket 4.0 20:52:14 10° S 20:58:26 78° E 21:04:37 10° NNE
Cosmos 1607 4.1 20:52:40 10° SSW 20:58:33 50° ESE 21:04:34 10° NE
Cosmos 2228 2.8 20:55:36 11° S 20:59:38 80° E 21:03:45 10° NNE
USA 186 3.5 20:58:47 10° SSW 21:00:56 22° W 21:03:08 10° NW
Timation 1 Rocket 4.5 20:55:58 10° SW 21:01:59 81° NW 21:08:03 10° NNE
Okean O Rocket 3.0 20:58:18 10° SSW 21:02:13 34° W 21:06:10 10° NNW
Tsikada Rocket 4.1 20:57:02 10° NNW 21:03:15 79° W 21:08:51 13° S
Cosmos 2278 4.4 20:57:48 10° NNW 21:03:20 46° NE 21:07:47 15° ESE
CZ-4C R/B 1.8 21:04:53 10° SW 21:09:14 85° SE 21:14:55 10° NE
Cosmos 1725 Rocket 4.4 21:03:21 10° SSW 21:09:36 67° WNW 21:15:51 10° N
Cosmos 1992 Rocket 4.4 21:05:58 16° S 21:09:47 43° ESE 21:14:43 10° NE
Meteor 1-20 Rocket 4.3 21:04:24 10° N 21:09:57 69° ENE 21:13:53 20° SSE
Cosmos 1452 Rocket 3.6 21:04:59 10° SSW 21:10:13 78° WNW 21:15:29 10° NNE
COSMOS 2406 4.0 21:07:29 18° SSE 21:10:49 33° ESE 21:15:52 10° NE
SL-16 R/B 2.5 21:05:16 10° NNW 21:10:54 59° NE 21:14:58 19° SE
Helios 1A 4.3 21:09:02 10° NE 21:12:04 21° E 21:13:02 19° ESE
ATLAS 3B R/B 4.1 21:07:53 10° NW 21:14:34 33° WSW 21:20:47 11° S
Okean-O 4.3 21:11:28 10° SSW 21:15:13 28° W 21:19:00 10° NW
Cosmos 1805 4.0 21:13:58 10° N 21:16:54 30° ENE 21:18:02 23° ESE
CZ-4B R/B 3.9 21:19:07 16° S 21:22:47 54° WSW 21:27:30 10° NNW
Cosmos 2333 Rocket 2.4 21:18:09 10° NNW 21:23:49 65° NE 21:27:39 21° SE
Cosmos 1455 Rocket 4.3 21:21:58 10° SW 21:26:08 40° WNW 21:30:19 10° N
Cosmos 1302 Rocket 4.0 21:22:43 10° SSW 21:27:54 87° WNW 21:33:07 10° NNE
Cosmos 2098 Rocket 4.0 21:25:32 24° SE 21:28:01 39° E 21:32:16 10° NNE
Meteor 1-25 Rocket 4.3 21:23:15 10° N 21:28:59 73° ENE 21:32:32 24° SSE
Cosmos 1980 Rocket 3.6 21:29:19 10° NW 21:34:11 30° WSW 21:38:33 12° SSW
CZ-4B R/B 4.2 21:33:11 13° SSW 21:35:27 25° W 21:38:20 10° NW
Cosmos 2061 Rocket 4.2 21:30:15 10° SSW 21:36:27 71° WNW 21:42:45 10° N
Cosmos 1782 4.2 21:33:43 10° SW 21:36:54 32° WNW 21:40:07 10° N
Cosmos 1544 Rocket 3.5 21:35:33 22° S 21:38:20 86° ESE 21:42:42 10° NNE
Cosmos 724 4.3 21:33:11 10° SW 21:39:13 85° NW 21:45:10 10° NE
NOSS 3-3 (A) 3.7 21:34:57 10° SSW 21:40:04 58° SE 21:46:15 10° NE
DNEPR-1 R/B 4.3 21:39:51 10° NW 21:45:04 74° NE 21:49:21 21° SE
Cosmos 1933 3.1 21:44:20 32° S 21:46:00 79° E 21:49:50 10° NNE
Cosmos 2084 Rocket 4.3 21:44:57 10° WNW 21:48:49 36° SW 21:50:19 27° SSW
Okean 1 4.0 21:49:59 28° ESE 21:50:27 29° E 21:53:36 10° NNE
Cosmos 1758 Rocket 4.3 21:46:55 10° NNW 21:51:07 47° W 21:53:42 21° SSW
Helios 1B rocket 2.3 21:51:51 37° SE 21:52:54 54° ENE 21:56:22 10° N
CZ-2C R/B 4.1 21:55:17 16° WSW 21:56:17 19° W 21:58:23 10° NW
Cosmos 1464 Rocket 4.0 21:53:23 25° S 21:57:01 66° E 22:03:08 10° NNE
Cosmos 1513 Rocket 4.5 21:56:21 20° S 22:00:56 86° W 22:07:09 10° N
Cosmos 2360 Rocket 2.3 21:55:20 10° NNW 22:01:02 71° NE 22:04:14 27° SE
Meteor 2-10 4.2 21:58:11 10° NNW 22:03:55 87° E 22:06:57 30° SSE
Cosmos 1825 Rocket 3.4 22:03:12 10° N 22:07:33 83° E 22:09:11 38° SSE
NOSS 3-3 (C) 3.7 22:02:52 11° SSW 22:07:57 72° SE 22:14:23 10° NE
Geosat 3.9 22:03:09 10° NNE 22:08:11 88° NW 22:12:24 15° SW
ALOS 2 3.5 22:06:32 25° ESE 22:08:26 38° ENE 22:12:32 10° N
ARIANE 5 R/B 3.2 22:07:11 29° ESE 22:09:02 46° ENE 22:13:19 10° N
ISS -3.1 22:05:54 10° WSW 22:08:14 38° SW 22:08:14 38° SW
Cosmos 1953 Rocket 3.9 22:04:54 10° N 22:09:13 53° ENE 22:10:47 34° SE
Cosmos 1072 Rocket 4.5 22:08:18 24° S 22:12:16 88° E 22:18:38 10° N
Cosmos 2058 Rocket 4.2 22:11:46 25° ESE 22:12:44 27° E 22:16:25 10° NNE
USA 305 4.0 22:10:21 10° W 22:13:09 22° SW 22:13:09 22° SW
BREEZE-M R/B 4.2 22:07:37 10° W 22:16:13 76° S 22:21:53 10° ESE
Cosmos 1602 Rocket 4.3 22:12:41 10° NNW 22:16:46 44° W 22:18:42 26° SSW
Cosmos 1092 Rocket 4.2 22:11:33 10° N 22:17:39 60° ENE 22:20:51 29° SE
Cosmos 2219 Rocket 2.5 22:12:56 10° NNW 22:18:35 64° NE 22:21:48 26° SE
CZ-2C R/B 4.2 22:14:46 10° NNE 22:18:59 41° E 22:20:05 35° SE
DEBRIS 4.3 22:15:25 10° W 22:19:35 69° S 22:35:27 10° E
NOSS 3-4 (A) 3.7 22:14:44 10° NW 22:21:17 81° SW 22:26:01 26° SE
NOSS 3-4 (C) 3.7 22:15:20 10° NW 22:21:55 82° SW 22:26:40 25° SE
Cosmos 1437 Rocket 3.5 22:21:47 24° SW 22:23:28 41° WNW 22:26:54 10° N
Cosmos 540 Rocket 4.3 22:23:21 30° SE 22:24:35 33° ESE 22:29:11 10° NE
Cosmos 1461 3.0 22:26:32 43° ESE 22:26:32 43° ESE 22:29:52 10° NE
Cosmos 2322 Rocket 2.2 22:22:50 10° NW 22:28:30 75° WSW 22:31:03 34° SSE
Cosmos 2034 Rocket 4.0 22:27:37 30° S 22:31:02 78° E 22:37:25 10° NNE
Cosmos 2082 Rocket 3.2 22:26:11 10° WSW 22:31:41 46° NW 22:37:12 10° NNE
ATLAS 2AS CENTAUR R/B 4.3 22:26:33 10° WNW 22:32:48 36° NNW 22:39:00 10° NE
Cosmos 220 Rocket 3.7 22:32:36 43° SSW 22:33:52 85° ESE 22:37:59 10° NNE
Cosmos 1536 3.0 22:33:50 10° N 22:37:26 52° ENE 22:38:06 45° ESE
Cosmos 1707 3.1 22:38:21 34° ENE 22:38:21 34° ENE 22:40:31 10° NNE
USA 234 3.4 22:32:01 10° ENE 22:38:23 51° SE 22:42:49 20° SSW
ACS3 Solar Sail 3.9 22:38:29 10° NE 22:40:52 12° ENE 22:43:15 10° ESE
COSMOS 2428 3.8 22:36:37 10° NNW 22:42:00 40° NE 22:46:33 14° ESE
Cosmos 2237 Rocket 4.1 22:40:28 10° NNW 22:45:10 25° NE 22:49:51 10° E
Helios 1A 3.6 22:43:11 10° N 22:46:58 46° WNW 22:48:44 26° SW
Cosmos 1503 Rocket 4.1 22:42:00 10° NNW 22:47:10 64° WSW 22:49:02 38° S
Cosmos 1777 Rocket 4.4 22:42:19 10° NNW 22:47:24 51° WSW 22:49:16 34° SSW
Cosmos 1763 Rocket 3.7 22:45:39 38° SSE 22:47:24 55° ESE 22:52:34 10° NNE
Cosmos 2278 4.4 22:42:04 10° NW 22:47:26 43° WSW 22:49:38 30° SSW
Cosmos-2242 2.9 22:47:28 50° SSE 22:48:22 66° E 22:52:28 10° NNE
CZ-2C R/B 4.2 22:44:43 10° NNE 22:49:53 35° E 22:51:56 27° SE
Cosmos 990 Rocket 3.9 22:45:23 10° NNW 22:50:34 82° WSW 22:52:30 39° SSE
ARGOS Delta rocket 4.1 22:49:25 10° NNE 22:54:21 60° E 22:56:07 38° SSE
Cosmos 1606 Rocket 4.2 22:52:45 28° SW 22:54:40 49° WNW 22:58:54 10° N
SL-16 R/B 3.3 22:49:47 10° NW 22:54:41 31° WSW 22:56:47 24° SW
COSMOS 2406 3.8 22:49:26 11° SW 22:54:50 57° NW 23:00:32 10° NNE
USA 290 2.4 22:56:48 59° ENE 22:56:48 59° ENE 22:59:37 10° NNE
Cosmos 1354 Rocket 4.0 22:52:09 10° NNW 22:57:25 74° WSW 22:59:19 40° S
CZ-4C R/B 3.8 22:53:33 10° W 22:58:05 36° NNW 23:03:53 10° NE
Cosmos 1634 Rocket 4.0 22:57:50 34° S 23:00:39 74° E 23:06:51 10° NNE
Cosmos 1766 2.8 22:58:04 10° NNW 23:01:16 64° W 23:01:17 64° W
Cosmos 1470 2.8 23:00:45 10° N 23:03:59 49° ENE 23:04:12 48° E
Cosmos 2279 Rocket 4.2 23:01:48 33° SSE 23:04:32 58° E 23:10:41 10° NNE
SeaSat 1 2.8 23:03:53 26° ESE 23:06:35 60° NE 23:11:25 10° NNW
Cosmos 2333 Rocket 3.5 23:02:58 10° NW 23:07:43 28° WSW 23:09:39 23° SW
Cosmos 1726 Rocket 4.1 23:06:20 32° SW 23:07:46 46° WNW 23:11:41 10° N
Cosmos 2221 3.3 23:09:57 33° ESE 23:10:42 36° E 23:14:32 10° NNE
Meteor 2-2 Rocket 4.2 23:10:21 36° S 23:12:47 89° E 23:18:34 10° NNE
Cosmos 1842 3.1 23:13:51 52° ENE 23:13:51 52° ENE 23:16:45 10° NNE
BREEZE-M DEB (TANK) 3.6 23:10:23 10° W 23:17:45 54° S 23:22:39 10° ESE
CZ-2C R/B 2.8 23:16:22 32° SE 23:18:48 66° ENE 23:24:00 10° N
Cosmos 1833 4.1 23:17:41 36° SSW 23:20:06 78° ESE 23:25:46 10° NNE
NOSS 0 Rocket 4.4 23:17:13 10° NNW 23:23:20 59° NE 23:28:04 17° SE
KORONAS-FOTON 3.4 23:25:14 73° WSW 23:25:24 76° WNW 23:28:48 10° N
Helios 1B rocket 4.3 23:25:48 14° W 23:26:13 15° W 23:28:16 10° NW
SAR-Lupe-2 4.1 23:26:37 40° W 23:26:37 40° W 23:29:45 10° NNW
Cosmos 1975 2.5 23:24:07 10° N 23:27:49 75° E 23:28:17 63° SE
Aureole 1 Rocket 3.8 23:24:22 10° NNW 23:29:32 68° WSW 23:32:03 36° S
Cosmos 2266 Rocket 4.1 23:25:26 10° N 23:31:29 68° ENE 23:34:28 31° SSE
Cosmos 2322 3.7 23:26:35 10° NNW 23:32:21 83° ENE 23:35:16 30° SE
Cosmos 1812 Rocket 4.0 23:34:01 40° SE 23:35:05 49° E 23:39:21 10° NNE
Cosmos 2297 Rocket 3.8 23:33:58 17° SE 23:35:44 20° E 23:39:42 10° NE
Cosmos 44 3.4 23:30:30 10° NW 23:35:56 76° SW 23:38:07 36° SSE
Cosmos 1271 Rocket 2.2 23:38:07 79° SE 23:38:14 81° ESE 23:41:40 10° NNE
Cosmos 372 Rocket 3.9 23:36:49 10° NNW 23:41:56 68° WSW 23:43:34 42° S
RESURS DK-1 2.4 23:39:00 10° NNW 23:43:00 70° NE 23:44:13 41° SE
Cosmos 1937 Rocket 3.5 23:38:05 10° NNW 23:43:16 75° ENE 23:45:41 32° SE
Cosmos 2360 Rocket 3.5 23:39:58 10° NW 23:44:31 25° WSW 23:45:58 22° SW
ALOS 2 3.7 23:43:55 28° WSW 23:44:51 30° W 23:48:45 10° NNW
ARIANE 5 R/B 4.0 23:44:33 23° WSW 23:45:33 25° W 23:49:16 10° NW
ISS-0.423:50:53E23:50:53E23:41:23W
Meteor 1-11 Rocket 3.7 23:41:11 10° NNW 23:46:59 82° ENE 23:49:32 34° SSE
GP-B 3.0 23:43:41 10° N 23:48:04 88° E 23:49:14 49° S
Cosmos 2058 Rocket 4.0 23:48:53 28° WSW 23:50:27 38° WNW 23:54:33 10° N
Cosmos 468 Rocket 4.0 23:51:08 38° SSW 23:53:14 89° WNW 23:58:32 10° NNE
